SWA1597 PHOG-KOAK

Flight info

Callsign SWA1597
Flight time 4h 27m
Altitude 35000
Route HIAKA1 ROSAH CLUTS R465 CORTT/N0450F370 R465 CINNY PIRAT3
Aircraft B738/M-SADE2E3GIJ4RWZ/LB1D1

Departure

Time 2026-04-14 04:41
Airport Kahului International Airport (PHOG)

Arrival

Time 2026-04-14 09:09
Airport San Francisco Bay Oakland International Airport (KOAK)
Time Latitude Longitude Altitude Speed Heading
2026-04-14 04:06 20.89195 -156.43747 65 ft 0 kts 305°
2026-04-14 04:31 20.89190 -156.43738 66 ft 2 kts 302°
2026-04-14 04:31 20.89181 -156.43726 66 ft 2 kts 308°
2026-04-14 04:31 20.89167 -156.43704 67 ft 2 kts 308°
2026-04-14 04:32 20.89161 -156.43689 67 ft 2 kts 275°
2026-04-14 04:32 20.89162 -156.43674 67 ft 2 kts 253°
2026-04-14 04:32 20.89168 -156.43658 67 ft 2 kts 230°
2026-04-14 04:32 20.89175 -156.43652 67 ft 0 kts 216°
2026-04-14 04:33 20.89180 -156.43648 67 ft 0 kts 214°
2026-04-14 04:36 20.89167 -156.43655 68 ft 2 kts 195°
2026-04-14 04:36 20.89149 -156.43657 68 ft 5 kts 183°
2026-04-14 04:36 20.89116 -156.43660 69 ft 4 kts 188°
2026-04-14 04:36 20.89087 -156.43672 70 ft 4 kts 212°
2026-04-14 04:37 20.89065 -156.43687 70 ft 2 kts 212°
2026-04-14 04:37 20.89053 -156.43695 70 ft 1 kts 213°
2026-04-14 04:37 20.89039 -156.43706 70 ft 3 kts 213°
2026-04-14 04:37 20.89021 -156.43718 70 ft 1 kts 213°
2026-04-14 04:38 20.89014 -156.43721 70 ft 1 kts 195°
2026-04-14 04:38 20.89007 -156.43721 71 ft 1 kts 173°
2026-04-14 04:38 20.89000 -156.43718 71 ft 0 kts 152°
2026-04-14 04:38 20.88995 -156.43713 71 ft 0 kts 137°
2026-04-14 04:39 20.88994 -156.43712 71 ft 0 kts 133°
2026-04-14 04:39 20.88990 -156.43707 71 ft 2 kts 133°
2026-04-14 04:39 20.88968 -156.43680 71 ft 6 kts 126°
2026-04-14 04:39 20.88949 -156.43649 72 ft 3 kts 123°
2026-04-14 04:40 20.88941 -156.43633 72 ft 2 kts 97°
2026-04-14 04:40 20.88948 -156.43611 73 ft 4 kts 53°
2026-04-14 04:40 20.88969 -156.43594 72 ft 4 kts 33°
2026-04-14 04:41 20.89722 -156.43033 50 ft 142 kts 35°
2026-04-14 04:41 20.90673 -156.42328 429 ft 170 kts 35°
2026-04-14 04:41 20.91633 -156.41656 1295 ft 166 kts 35°
2026-04-14 04:41 20.92602 -156.40956 1860 ft 172 kts 37°
2026-04-14 04:42 20.93659 -156.40161 2176 ft 200 kts 37°
2026-04-14 04:42 20.94876 -156.39258 2651 ft 222 kts 35°
2026-04-14 04:42 20.96173 -156.38300 3345 ft 233 kts 36°
2026-04-14 04:42 20.97539 -156.37277 3982 ft 248 kts 36°
2026-04-14 04:43 20.99037 -156.36198 4599 ft 265 kts 33°
2026-04-14 04:43 21.00616 -156.35110 5385 ft 273 kts 33°
2026-04-14 04:43 21.02200 -156.34010 6189 ft 278 kts 33°
2026-04-14 04:43 21.03815 -156.32777 6968 ft 286 kts 37°
2026-04-14 04:44 21.05396 -156.31435 7726 ft 293 kts 38°
2026-04-14 04:44 21.07000 -156.30040 8486 ft 300 kts 38°
2026-04-14 04:44 21.08651 -156.28622 9246 ft 306 kts 37°
2026-04-14 04:44 21.10323 -156.27208 9985 ft 311 kts 36°
2026-04-14 04:45 21.12077 -156.25735 10572 ft 323 kts 36°
2026-04-14 04:45 21.13879 -156.24231 11033 ft 338 kts 36°
2026-04-14 04:45 21.15808 -156.22618 11444 ft 354 kts 36°
2026-04-14 04:45 21.17791 -156.20962 11834 ft 370 kts 36°
2026-04-14 04:46 21.19873 -156.19220 12203 ft 386 kts 36°
2026-04-14 04:46 21.22049 -156.17398 12554 ft 401 kts 36°
2026-04-14 04:46 21.24257 -156.15549 13139 ft 407 kts 36°
2026-04-14 04:46 21.26528 -156.13644 13777 ft 412 kts 36°
2026-04-14 04:47 21.28795 -156.11743 14465 ft 415 kts 36°
2026-04-14 04:47 21.31102 -156.09805 15110 ft 419 kts 36°
2026-04-14 04:47 21.33398 -156.07878 15723 ft 422 kts 36°
2026-04-14 04:47 21.35743 -156.05908 16307 ft 426 kts 36°
2026-04-14 04:48 21.38089 -156.03937 16866 ft 430 kts 36°
2026-04-14 04:48 21.40445 -156.01958 17458 ft 433 kts 36°
2026-04-14 04:48 21.42845 -155.99940 18021 ft 436 kts 36°
2026-04-14 04:48 21.45241 -155.97926 18482 ft 442 kts 36°
2026-04-14 04:49 21.47699 -155.95859 18941 ft 447 kts 36°
2026-04-14 04:49 21.50166 -155.93782 19429 ft 451 kts 36°
2026-04-14 04:49 21.52669 -155.91676 19887 ft 456 kts 36°
2026-04-14 04:49 21.55199 -155.89546 20369 ft 460 kts 36°
2026-04-14 04:50 21.57754 -155.87395 20792 ft 465 kts 36°
2026-04-14 04:50 21.60331 -155.85222 21217 ft 470 kts 36°
2026-04-14 04:50 21.62916 -155.83041 21616 ft 475 kts 37°
2026-04-14 04:50 21.65510 -155.80850 22030 ft 479 kts 37°
2026-04-14 04:51 21.68173 -155.78600 22449 ft 483 kts 37°
2026-04-14 04:51 21.70835 -155.76349 22834 ft 488 kts 37°
2026-04-14 04:51 21.73505 -155.74089 23283 ft 491 kts 37°
2026-04-14 04:51 21.76226 -155.71788 23706 ft 494 kts 37°
2026-04-14 04:52 21.78948 -155.69484 24158 ft 496 kts 36°
2026-04-14 04:52 21.81663 -155.67186 24534 ft 501 kts 37°
2026-04-14 04:52 21.84425 -155.64845 24938 ft 504 kts 37°
2026-04-14 04:52 21.87185 -155.62508 25353 ft 506 kts 36°
2026-04-14 04:53 21.89997 -155.60124 25735 ft 510 kts 36°
2026-04-14 04:53 21.92794 -155.57752 26143 ft 512 kts 36°
2026-04-14 04:53 21.95601 -155.55371 26508 ft 516 kts 36°
2026-04-14 04:53 21.98442 -155.52959 26878 ft 519 kts 36°
2026-04-14 04:54 22.01318 -155.50514 27214 ft 523 kts 36°
2026-04-14 04:54 22.04202 -155.48062 27522 ft 527 kts 36°
2026-04-14 04:54 22.07098 -155.45599 27827 ft 531 kts 36°
2026-04-14 04:54 22.10002 -155.43127 28268 ft 531 kts 36°
2026-04-14 04:55 22.12896 -155.40663 28851 ft 528 kts 36°
2026-04-14 04:55 22.15797 -155.38188 29466 ft 525 kts 36°
2026-04-14 04:55 22.18665 -155.35741 30050 ft 522 kts 36°
2026-04-14 04:55 22.21505 -155.33315 30633 ft 518 kts 36°
2026-04-14 04:56 22.24342 -155.30890 31176 ft 515 kts 36°
2026-04-14 04:56 22.27155 -155.28485 31612 ft 515 kts 36°
2026-04-14 04:56 22.30004 -155.26048 31980 ft 515 kts 36°
2026-04-14 04:56 22.32818 -155.23642 32253 ft 518 kts 36°
2026-04-14 04:57 22.35661 -155.21211 32400 ft 523 kts 36°
2026-04-14 04:57 22.38545 -155.18742 32665 ft 525 kts 36°
2026-04-14 04:57 22.41429 -155.16272 33127 ft 523 kts 36°
2026-04-14 04:57 22.44314 -155.13800 33561 ft 523 kts 36°
2026-04-14 04:58 22.47130 -155.11383 34031 ft 521 kts 36°
2026-04-14 04:58 22.49974 -155.08945 34450 ft 520 kts 36°
2026-04-14 04:58 22.52832 -155.06493 34764 ft 521 kts 36°
2026-04-14 04:58 22.55697 -155.04034 35030 ft 522 kts 36°
2026-04-14 04:59 22.58554 -155.01581 35074 ft 522 kts 36°
2026-04-14 04:59 22.64221 -154.96703 35075 ft 513 kts 36°
2026-04-14 05:00 22.69835 -154.91867 35080 ft 514 kts 36°
2026-04-14 05:00 22.75473 -154.87010 35081 ft 515 kts 36°
2026-04-14 05:01 22.81159 -154.82108 35083 ft 516 kts 35°
2026-04-14 05:01 22.86795 -154.77240 35087 ft 514 kts 36°
2026-04-14 05:02 22.92422 -154.72377 35090 ft 515 kts 36°
2026-04-14 05:02 22.97896 -154.67302 35090 ft 518 kts 41°
2026-04-14 05:03 23.02725 -154.61487 35090 ft 520 kts 51°
2026-04-14 05:03 23.06968 -154.55035 35092 ft 521 kts 56°
2026-04-14 05:04 23.10937 -154.48444 35091 ft 520 kts 57°
2026-04-14 05:04 23.14862 -154.41838 35091 ft 521 kts 56°
2026-04-14 05:05 23.18842 -154.35199 35091 ft 522 kts 56°
2026-04-14 05:05 23.22824 -154.28604 35091 ft 520 kts 56°
2026-04-14 05:06 23.26817 -154.22018 35091 ft 521 kts 56°
2026-04-14 05:06 23.30820 -154.15399 35092 ft 521 kts 56°
2026-04-14 05:07 23.34809 -154.08795 35092 ft 521 kts 56°
2026-04-14 05:07 23.38814 -154.02161 35091 ft 522 kts 56°
2026-04-14 05:08 23.42790 -153.95560 35091 ft 520 kts 56°
2026-04-14 05:08 23.46771 -153.88948 35092 ft 521 kts 56°
2026-04-14 05:09 23.50740 -153.82347 35091 ft 520 kts 56°
2026-04-14 05:09 23.54732 -153.75700 35090 ft 521 kts 56°
2026-04-14 05:10 23.58699 -153.69086 35091 ft 521 kts 56°
2026-04-14 05:10 23.62677 -153.62448 35091 ft 522 kts 56°
2026-04-14 05:11 23.66651 -153.55806 35091 ft 521 kts 56°
2026-04-14 05:11 23.70617 -153.49162 35091 ft 521 kts 56°
2026-04-14 05:12 23.74581 -153.42516 35091 ft 521 kts 56°
2026-04-14 05:12 23.77975 -153.35496 35090 ft 520 kts 68°
2026-04-14 05:13 23.80736 -153.28180 35090 ft 521 kts 67°
2026-04-14 05:13 23.83909 -153.21065 35091 ft 520 kts 62°
2026-04-14 05:14 23.87548 -153.14204 35092 ft 521 kts 58°
2026-04-14 05:14 23.91448 -153.07466 35090 ft 521 kts 56°
2026-04-14 05:15 23.95403 -153.00853 35091 ft 521 kts 56°
2026-04-14 05:15 23.99405 -152.94182 35097 ft 521 kts 56°
2026-04-14 05:16 24.03376 -152.87538 35095 ft 522 kts 56°
2026-04-14 05:16 24.07363 -152.80843 35104 ft 523 kts 56°
2026-04-14 05:17 24.11317 -152.74170 35109 ft 521 kts 56°
2026-04-14 05:17 24.13307 -152.70807 35210 ft 525 kts 56°
2026-04-14 05:17 24.15289 -152.67454 35594 ft 524 kts 56°
2026-04-14 05:17 24.17279 -152.64084 36040 ft 521 kts 56°
2026-04-14 05:18 24.19252 -152.60739 36391 ft 521 kts 56°
2026-04-14 05:18 24.21211 -152.57417 36662 ft 522 kts 56°
2026-04-14 05:18 24.23182 -152.54074 36941 ft 523 kts 56°
2026-04-14 05:18 24.25164 -152.50711 37125 ft 524 kts 56°
2026-04-14 05:19 24.27183 -152.47282 37126 ft 528 kts 56°
2026-04-14 05:19 24.31167 -152.40511 37124 ft 522 kts 56°
2026-04-14 05:20 24.34566 -152.34720 37126 ft 523 kts 56°
2026-04-14 05:20 24.37728 -152.29334 37134 ft 523 kts 57°
2026-04-14 05:21 24.41717 -152.22530 37134 ft 524 kts 57°
2026-04-14 05:21 24.44674 -152.17480 37136 ft 524 kts 57°
2026-04-14 05:22 24.49560 -152.09126 37138 ft 523 kts 56°
2026-04-14 05:22 24.53487 -152.02396 37146 ft 524 kts 56°
2026-04-14 05:23 24.57428 -151.95633 37147 ft 523 kts 57°
2026-04-14 05:23 24.61391 -151.88821 37147 ft 524 kts 56°
2026-04-14 05:24 24.65331 -151.82039 37146 ft 523 kts 56°
2026-04-14 05:24 24.69260 -151.75272 37143 ft 523 kts 56°
2026-04-14 05:25 24.73185 -151.68498 37133 ft 521 kts 56°
2026-04-14 05:25 24.77089 -151.61758 37143 ft 523 kts 56°
2026-04-14 05:26 24.81021 -151.54954 37139 ft 524 kts 56°
2026-04-14 05:26 24.84913 -151.48213 37143 ft 523 kts 56°
2026-04-14 05:27 24.88821 -151.41432 37142 ft 523 kts 56°
2026-04-14 05:27 24.92731 -151.34633 37142 ft 524 kts 56°
2026-04-14 05:28 24.96637 -151.27840 37144 ft 522 kts 57°
2026-04-14 05:28 25.00532 -151.21059 37149 ft 523 kts 56°
2026-04-14 05:29 25.04434 -151.14246 37147 ft 522 kts 56°
2026-04-14 05:29 25.08307 -151.07475 37149 ft 523 kts 56°
2026-04-14 05:30 25.12195 -151.00667 37152 ft 524 kts 57°
2026-04-14 05:30 25.16108 -150.93816 37154 ft 523 kts 56°
2026-04-14 05:31 25.19989 -150.87012 37154 ft 525 kts 56°
2026-04-14 05:31 25.23890 -150.80159 37155 ft 525 kts 56°
2026-04-14 05:32 25.27786 -150.73305 37159 ft 523 kts 56°
2026-04-14 05:32 25.31651 -150.66496 37161 ft 524 kts 56°
2026-04-14 05:33 25.35509 -150.59689 37162 ft 523 kts 56°
2026-04-14 05:33 25.39381 -150.52841 37166 ft 523 kts 56°
2026-04-14 05:34 25.45191 -150.42549 37168 ft 523 kts 56°
2026-04-14 05:34 25.49058 -150.35693 37168 ft 524 kts 56°
2026-04-14 05:35 25.52916 -150.28833 37169 ft 522 kts 56°
2026-04-14 05:35 25.56766 -150.21974 37172 ft 522 kts 57°
2026-04-14 05:36 25.60631 -150.15082 37172 ft 523 kts 56°
2026-04-14 05:36 25.64465 -150.08241 37171 ft 523 kts 57°
2026-04-14 05:37 25.68321 -150.01363 37171 ft 523 kts 56°
2026-04-14 05:37 25.72169 -149.94482 37176 ft 523 kts 56°
2026-04-14 05:38 25.75987 -149.87624 37173 ft 524 kts 56°
2026-04-14 05:38 25.79812 -149.80748 37178 ft 522 kts 57°
2026-04-14 05:39 25.83637 -149.73875 37181 ft 520 kts 56°
2026-04-14 05:39 25.87439 -149.67030 37178 ft 522 kts 56°
2026-04-14 05:40 25.91243 -149.60179 37183 ft 521 kts 56°
2026-04-14 05:40 25.95069 -149.53278 37184 ft 523 kts 56°
2026-04-14 05:41 25.98861 -149.46431 37184 ft 521 kts 56°
2026-04-14 05:41 26.02681 -149.39519 37185 ft 523 kts 56°
2026-04-14 05:42 26.06479 -149.32625 37189 ft 522 kts 57°
2026-04-14 05:42 26.10278 -149.25714 37190 ft 522 kts 57°
2026-04-14 05:43 26.14075 -149.18800 37193 ft 520 kts 56°
2026-04-14 05:43 26.17850 -149.11923 37194 ft 522 kts 57°
2026-04-14 05:44 26.21631 -149.05020 37195 ft 520 kts 56°
2026-04-14 05:44 26.25402 -148.98125 37196 ft 521 kts 57°
2026-04-14 05:45 26.29169 -148.91225 37201 ft 522 kts 57°
2026-04-14 05:45 26.32963 -148.84267 37201 ft 520 kts 56°
2026-04-14 05:46 26.36729 -148.77351 37205 ft 521 kts 56°
2026-04-14 05:46 26.40496 -148.70430 37207 ft 521 kts 56°
2026-04-14 05:47 26.44240 -148.63536 37209 ft 519 kts 56°
2026-04-14 05:47 26.47992 -148.56613 37213 ft 520 kts 56°
2026-04-14 05:48 26.51774 -148.49628 37213 ft 520 kts 57°
2026-04-14 05:48 26.55504 -148.42726 37217 ft 520 kts 56°
2026-04-14 05:49 26.59263 -148.35763 37220 ft 520 kts 56°
2026-04-14 05:49 26.63003 -148.28824 37222 ft 518 kts 57°
2026-04-14 05:50 26.66731 -148.21892 37223 ft 519 kts 57°
2026-04-14 05:50 26.70449 -148.14963 37227 ft 519 kts 57°
2026-04-14 05:51 26.74186 -148.07993 37231 ft 519 kts 56°
2026-04-14 05:51 26.77900 -148.01067 37228 ft 520 kts 57°
2026-04-14 05:52 26.81630 -147.94092 37233 ft 518 kts 57°
2026-04-14 05:52 26.85360 -147.87100 37234 ft 520 kts 56°
2026-04-14 05:53 26.89044 -147.80185 37233 ft 517 kts 56°
2026-04-14 05:53 26.92750 -147.73218 37233 ft 519 kts 56°
2026-04-14 05:54 26.96458 -147.66235 37234 ft 517 kts 56°
2026-04-14 05:54 27.00126 -147.59319 37236 ft 518 kts 56°
2026-04-14 05:55 27.03798 -147.52385 37235 ft 517 kts 56°
2026-04-14 05:55 27.07475 -147.45436 37237 ft 516 kts 56°
2026-04-14 05:56 27.11140 -147.38486 37236 ft 513 kts 56°
2026-04-14 05:56 27.14786 -147.31563 37237 ft 514 kts 56°
2026-04-14 05:57 27.18433 -147.24635 37238 ft 514 kts 57°
2026-04-14 05:57 27.22088 -147.17674 37239 ft 513 kts 56°
2026-04-14 05:58 27.25723 -147.10745 37240 ft 512 kts 56°
2026-04-14 05:58 27.29352 -147.03818 37241 ft 510 kts 56°
2026-04-14 05:59 27.32950 -146.96939 37242 ft 511 kts 56°
2026-04-14 05:59 27.36568 -146.90006 37245 ft 511 kts 56°
2026-04-14 06:00 27.40175 -146.83083 37247 ft 509 kts 56°
2026-04-14 06:00 27.43750 -146.76210 37248 ft 511 kts 56°
2026-04-14 06:01 27.47362 -146.69255 37251 ft 510 kts 56°
2026-04-14 06:01 27.50947 -146.62341 37251 ft 510 kts 56°
2026-04-14 06:02 27.54543 -146.55400 37256 ft 509 kts 56°
2026-04-14 06:02 27.58116 -146.48488 37259 ft 511 kts 56°
2026-04-14 06:03 27.61723 -146.41499 37263 ft 511 kts 56°
2026-04-14 06:04 27.67076 -146.31105 37266 ft 509 kts 56°
2026-04-14 06:04 27.70643 -146.24170 37266 ft 511 kts 56°
2026-04-14 06:05 27.74207 -146.17219 37269 ft 509 kts 56°
2026-04-14 06:05 27.77756 -146.10294 37270 ft 510 kts 57°
2026-04-14 06:06 27.81312 -146.03349 37273 ft 510 kts 57°
2026-04-14 06:06 27.84879 -145.96361 37275 ft 510 kts 57°
2026-04-14 06:07 27.88423 -145.89407 37274 ft 508 kts 57°
2026-04-14 06:07 27.91964 -145.82454 37267 ft 509 kts 56°
2026-04-14 06:08 27.95503 -145.75485 37262 ft 507 kts 56°
2026-04-14 06:08 27.99013 -145.68562 37264 ft 507 kts 56°
2026-04-14 06:09 28.02546 -145.61587 37267 ft 508 kts 56°
2026-04-14 06:09 28.06079 -145.54605 37265 ft 507 kts 56°
2026-04-14 06:10 28.09587 -145.47659 37272 ft 506 kts 56°
2026-04-14 06:10 28.13080 -145.40730 37272 ft 506 kts 56°
2026-04-14 06:11 28.16587 -145.33757 37271 ft 504 kts 57°
2026-04-14 06:11 28.20076 -145.26804 37273 ft 506 kts 57°
2026-04-14 06:12 28.23543 -145.19887 37276 ft 504 kts 56°
2026-04-14 06:12 28.27056 -145.12877 37275 ft 506 kts 57°
2026-04-14 06:13 28.30511 -145.05960 37275 ft 504 kts 56°
2026-04-14 06:13 28.33988 -144.98981 37269 ft 504 kts 56°
2026-04-14 06:14 28.37445 -144.92042 37265 ft 502 kts 56°
2026-04-14 06:14 28.40905 -144.85091 37266 ft 502 kts 56°
2026-04-14 06:15 28.44345 -144.78162 37267 ft 502 kts 56°
2026-04-14 06:15 28.47775 -144.71242 37271 ft 503 kts 56°
2026-04-14 06:16 28.51201 -144.64320 37272 ft 502 kts 56°
2026-04-14 06:16 28.54622 -144.57394 37277 ft 501 kts 56°
2026-04-14 06:17 28.58050 -144.50449 37277 ft 502 kts 56°
2026-04-14 06:17 28.61473 -144.43501 37275 ft 500 kts 56°
2026-04-14 06:18 28.64892 -144.36543 37275 ft 502 kts 56°
2026-04-14 06:18 28.68305 -144.29587 37273 ft 501 kts 56°
2026-04-14 06:19 28.71703 -144.22646 37274 ft 501 kts 56°
2026-04-14 06:19 28.75085 -144.15726 37276 ft 500 kts 56°
2026-04-14 06:20 28.78503 -144.08725 37276 ft 500 kts 56°
2026-04-14 06:20 28.81881 -144.01799 37275 ft 502 kts 56°
2026-04-14 06:21 28.85281 -143.94812 37275 ft 499 kts 56°
2026-04-14 06:21 28.88664 -143.87849 37278 ft 500 kts 56°
2026-04-14 06:22 28.92068 -143.80835 37279 ft 501 kts 56°
2026-04-14 06:22 28.95450 -143.73850 37281 ft 500 kts 56°
2026-04-14 06:23 28.98833 -143.66843 37282 ft 501 kts 56°
2026-04-14 06:23 29.02231 -143.59801 37280 ft 499 kts 56°
2026-04-14 06:24 29.05581 -143.52841 37277 ft 500 kts 56°
2026-04-14 06:24 29.08945 -143.45844 37278 ft 499 kts 56°
2026-04-14 06:25 29.12302 -143.38846 37280 ft 500 kts 55°
2026-04-14 06:25 29.15636 -143.31885 37283 ft 499 kts 56°
2026-04-14 06:26 29.18987 -143.24884 37285 ft 501 kts 56°
2026-04-14 06:26 29.22329 -143.17882 37296 ft 499 kts 56°
2026-04-14 06:27 29.25665 -143.10881 37304 ft 501 kts 56°
2026-04-14 06:27 29.29024 -143.03825 37304 ft 499 kts 56°
2026-04-14 06:28 29.32333 -142.96863 37305 ft 499 kts 56°
2026-04-14 06:28 29.35670 -142.89825 37304 ft 500 kts 56°
2026-04-14 06:29 29.39003 -142.82785 37306 ft 500 kts 56°
2026-04-14 06:29 29.42305 -142.75790 37307 ft 498 kts 56°
2026-04-14 06:30 29.45599 -142.68805 37308 ft 498 kts 56°
2026-04-14 06:30 29.48897 -142.61800 37307 ft 497 kts 56°
2026-04-14 06:31 29.52205 -142.54761 37310 ft 498 kts 56°
2026-04-14 06:31 29.55511 -142.47707 37308 ft 496 kts 56°
2026-04-14 06:32 29.58798 -142.40685 37308 ft 498 kts 55°
2026-04-14 06:32 29.62083 -142.33656 37308 ft 497 kts 56°
2026-04-14 06:33 29.65353 -142.26646 37309 ft 497 kts 56°
2026-04-14 06:33 29.68653 -142.19566 37311 ft 500 kts 56°
2026-04-14 06:34 29.73567 -142.09001 37313 ft 498 kts 56°
2026-04-14 06:34 29.76842 -142.01936 37313 ft 497 kts 56°
2026-04-14 06:35 29.80114 -141.94867 37315 ft 496 kts 56°
2026-04-14 06:35 29.83357 -141.87848 37315 ft 497 kts 56°
2026-04-14 06:36 29.86613 -141.80792 37316 ft 495 kts 55°
2026-04-14 06:36 29.89858 -141.73743 37315 ft 496 kts 56°
2026-04-14 06:37 29.93107 -141.66675 37311 ft 494 kts 56°
2026-04-14 06:37 29.96328 -141.59645 37306 ft 494 kts 55°
2026-04-14 06:38 29.99544 -141.52624 37303 ft 496 kts 55°
2026-04-14 06:38 30.02775 -141.45558 37304 ft 496 kts 55°
2026-04-14 06:39 30.06000 -141.38483 37296 ft 492 kts 55°
2026-04-14 06:39 30.09199 -141.31464 37302 ft 494 kts 55°
2026-04-14 06:40 30.12357 -141.24522 37299 ft 494 kts 56°
2026-04-14 06:40 30.15567 -141.17453 37303 ft 494 kts 56°
2026-04-14 06:41 30.18776 -141.10362 37300 ft 493 kts 55°
2026-04-14 06:41 30.21946 -141.03342 37304 ft 492 kts 55°
2026-04-14 06:42 30.25123 -140.96306 37301 ft 493 kts 55°
2026-04-14 06:42 30.28308 -140.89243 37308 ft 493 kts 55°
2026-04-14 06:43 30.31497 -140.82155 37307 ft 492 kts 55°
2026-04-14 06:43 30.34657 -140.75108 37311 ft 491 kts 55°
2026-04-14 06:44 30.37815 -140.68062 37317 ft 492 kts 55°
2026-04-14 06:44 30.40967 -140.61006 37322 ft 491 kts 55°
2026-04-14 06:45 30.44108 -140.53958 37323 ft 492 kts 55°
2026-04-14 06:45 30.47242 -140.46912 37321 ft 492 kts 55°
2026-04-14 06:46 30.51939 -140.36310 37324 ft 489 kts 55°
2026-04-14 06:47 30.54526 -140.30467 37327 ft 492 kts 56°
2026-04-14 06:47 30.57643 -140.23413 37326 ft 491 kts 55°
2026-04-14 06:48 30.60760 -140.16344 37329 ft 490 kts 56°
2026-04-14 06:48 30.63885 -140.09244 37330 ft 490 kts 55°
2026-04-14 06:49 30.66996 -140.02159 37331 ft 490 kts 56°
2026-04-14 06:49 30.70097 -139.95093 37331 ft 490 kts 55°
2026-04-14 06:50 30.73213 -139.87978 37332 ft 492 kts 56°
2026-04-14 06:50 30.76301 -139.80910 37323 ft 490 kts 56°
2026-04-14 06:51 30.79392 -139.73816 37323 ft 489 kts 56°
2026-04-14 06:51 30.82468 -139.66757 37324 ft 490 kts 55°
2026-04-14 06:52 30.85553 -139.59653 37326 ft 488 kts 55°
2026-04-14 06:52 30.88647 -139.52524 37327 ft 491 kts 56°
2026-04-14 06:53 30.91733 -139.45395 37325 ft 491 kts 55°
2026-04-14 06:53 30.94811 -139.38272 37320 ft 490 kts 56°
2026-04-14 06:54 30.97885 -139.31133 37320 ft 489 kts 56°
2026-04-14 06:54 31.00938 -139.24036 37318 ft 487 kts 56°
2026-04-14 06:55 31.03983 -139.16946 37323 ft 486 kts 56°
2026-04-14 06:55 31.07049 -139.09798 37336 ft 486 kts 56°
2026-04-14 06:56 31.10086 -139.02707 37340 ft 489 kts 56°
2026-04-14 06:56 31.13133 -138.95575 37343 ft 490 kts 56°
2026-04-14 06:57 31.16179 -138.88422 37344 ft 488 kts 56°
2026-04-14 06:57 31.19208 -138.81297 37347 ft 488 kts 56°
2026-04-14 06:58 31.22243 -138.74156 37347 ft 491 kts 56°
2026-04-14 06:58 31.25269 -138.67013 37352 ft 488 kts 56°
2026-04-14 06:59 31.28291 -138.59869 37352 ft 490 kts 56°
2026-04-14 06:59 31.31301 -138.52739 37349 ft 489 kts 56°
2026-04-14 07:00 31.34343 -138.45522 37349 ft 490 kts 56°
2026-04-14 07:00 31.37361 -138.38347 37345 ft 488 kts 56°
2026-04-14 07:01 31.40364 -138.31183 37344 ft 488 kts 56°
2026-04-14 07:01 31.43360 -138.24030 37342 ft 490 kts 56°
2026-04-14 07:02 31.46378 -138.16815 37342 ft 490 kts 56°
2026-04-14 07:02 31.49376 -138.09625 37341 ft 489 kts 56°
2026-04-14 07:03 31.52372 -138.02431 37480 ft 492 kts 56°
2026-04-14 07:03 31.53866 -137.98842 37738 ft 493 kts 56°
2026-04-14 07:03 31.55384 -137.95186 38154 ft 491 kts 56°
2026-04-14 07:03 31.56872 -137.91594 38596 ft 489 kts 56°
2026-04-14 07:04 31.58360 -137.88001 38897 ft 488 kts 56°
2026-04-14 07:04 31.59845 -137.84412 39182 ft 488 kts 56°
2026-04-14 07:04 31.61340 -137.80797 39353 ft 489 kts 56°
2026-04-14 07:05 31.64303 -137.73631 39340 ft 487 kts 56°
2026-04-14 07:05 31.67261 -137.66455 39345 ft 485 kts 56°
2026-04-14 07:06 31.70202 -137.59308 39337 ft 485 kts 56°
2026-04-14 07:06 31.73140 -137.52155 39341 ft 484 kts 55°
2026-04-14 07:07 31.76083 -137.44975 39342 ft 486 kts 55°
2026-04-14 07:07 31.78998 -137.37846 39341 ft 483 kts 55°
2026-04-14 07:08 31.81911 -137.30704 39340 ft 484 kts 56°
2026-04-14 07:08 31.84831 -137.23535 39342 ft 479 kts 56°
2026-04-14 07:09 31.87696 -137.16479 39346 ft 481 kts 56°
2026-04-14 07:09 31.90614 -137.09305 39357 ft 486 kts 56°
2026-04-14 07:10 31.93530 -137.02109 39356 ft 483 kts 55°
2026-04-14 07:10 31.96415 -136.94963 39358 ft 484 kts 55°
2026-04-14 07:11 31.99310 -136.87782 39360 ft 482 kts 55°
2026-04-14 07:11 32.02188 -136.80632 39358 ft 481 kts 55°
2026-04-14 07:12 32.05074 -136.73453 39357 ft 484 kts 56°
2026-04-14 07:12 32.07967 -136.66246 39363 ft 485 kts 55°
2026-04-14 07:13 32.10835 -136.59071 39358 ft 480 kts 55°
2026-04-14 07:13 32.13719 -136.51843 39359 ft 484 kts 55°
2026-04-14 07:14 32.16575 -136.44667 39360 ft 481 kts 55°
2026-04-14 07:14 32.19442 -136.37457 39361 ft 483 kts 55°
2026-04-14 07:15 32.22308 -136.30222 39354 ft 481 kts 56°
2026-04-14 07:15 32.25163 -136.23018 39347 ft 485 kts 56°
2026-04-14 07:16 32.28027 -136.15778 39344 ft 481 kts 55°
2026-04-14 07:16 32.30862 -136.08575 39342 ft 481 kts 56°
2026-04-14 07:17 32.33694 -136.01379 39346 ft 482 kts 56°
2026-04-14 07:17 32.36545 -135.94113 39351 ft 480 kts 55°
2026-04-14 07:18 32.39357 -135.86935 39351 ft 482 kts 56°
2026-04-14 07:18 32.42194 -135.79683 39347 ft 480 kts 55°
2026-04-14 07:19 32.45017 -135.72441 39350 ft 481 kts 55°
2026-04-14 07:19 32.47825 -135.65230 39346 ft 480 kts 55°
2026-04-14 07:20 32.50663 -135.57941 39346 ft 483 kts 55°
2026-04-14 07:20 32.53478 -135.50679 39341 ft 483 kts 55°
2026-04-14 07:21 32.56265 -135.43462 39348 ft 482 kts 55°
2026-04-14 07:21 32.59089 -135.36154 39353 ft 482 kts 55°
2026-04-14 07:22 32.61869 -135.28937 39347 ft 482 kts 56°
2026-04-14 07:22 32.64676 -135.21646 39345 ft 483 kts 56°
2026-04-14 07:23 32.67491 -135.14319 39345 ft 485 kts 56°
2026-04-14 07:23 32.70277 -135.07044 39339 ft 481 kts 55°
2026-04-14 07:24 32.73034 -134.99821 39341 ft 482 kts 55°
2026-04-14 07:24 32.75831 -134.92499 39358 ft 485 kts 55°
2026-04-14 07:25 32.78599 -134.85223 39355 ft 485 kts 55°
2026-04-14 07:25 32.81382 -134.77896 39351 ft 483 kts 55°
2026-04-14 07:26 32.84132 -134.70616 39362 ft 480 kts 55°
2026-04-14 07:26 32.86904 -134.63278 39351 ft 483 kts 55°
2026-04-14 07:27 32.89634 -134.56021 39357 ft 479 kts 55°
2026-04-14 07:27 32.92377 -134.48743 39356 ft 483 kts 54°
2026-04-14 07:28 32.95124 -134.41434 39358 ft 481 kts 55°
2026-04-14 07:28 32.97841 -134.34172 39354 ft 477 kts 56°
2026-04-14 07:29 33.00573 -134.26862 39356 ft 481 kts 55°
2026-04-14 07:29 33.03285 -134.19597 39358 ft 478 kts 55°
2026-04-14 07:30 33.06005 -134.12297 39358 ft 482 kts 54°
2026-04-14 07:30 33.08685 -134.05061 39359 ft 473 kts 55°
2026-04-14 07:31 33.11359 -133.97845 39355 ft 476 kts 55°
2026-04-14 07:31 33.14067 -133.90552 39354 ft 478 kts 54°
2026-04-14 07:32 33.16736 -133.83322 39359 ft 478 kts 54°
2026-04-14 07:32 33.19429 -133.76010 39359 ft 476 kts 55°
2026-04-14 07:33 33.22089 -133.68761 39359 ft 476 kts 54°
2026-04-14 07:33 33.24758 -133.61482 39361 ft 478 kts 54°
2026-04-14 07:34 33.30092 -133.46904 39347 ft 481 kts 54°
2026-04-14 07:35 33.32741 -133.39606 39348 ft 473 kts 54°
2026-04-14 07:35 33.35376 -133.32350 39347 ft 478 kts 55°
2026-04-14 07:36 33.38054 -133.24994 39344 ft 481 kts 55°
2026-04-14 07:36 33.40681 -133.17714 39350 ft 477 kts 54°
2026-04-14 07:37 33.43322 -133.10399 39349 ft 475 kts 54°
2026-04-14 07:37 33.45945 -133.03131 39346 ft 478 kts 54°
2026-04-14 07:38 33.48608 -132.95747 39350 ft 481 kts 54°
2026-04-14 07:38 33.51254 -132.88365 39348 ft 480 kts 54°
2026-04-14 07:39 33.53876 -132.81018 39354 ft 479 kts 54°
2026-04-14 07:39 33.56490 -132.73686 39351 ft 479 kts 54°
2026-04-14 07:40 33.59112 -132.66307 39347 ft 474 kts 54°
2026-04-14 07:40 33.61717 -132.58995 39343 ft 478 kts 54°
2026-04-14 07:41 33.64327 -132.51637 39349 ft 474 kts 54°
2026-04-14 07:41 33.66922 -132.44318 39346 ft 477 kts 54°
2026-04-14 07:42 33.69533 -132.36945 39345 ft 482 kts 54°
2026-04-14 07:42 33.72168 -132.29475 39346 ft 486 kts 55°
2026-04-14 07:43 33.74794 -132.21995 39351 ft 488 kts 54°
2026-04-14 07:43 33.77441 -132.14442 39354 ft 490 kts 54°
2026-04-14 07:44 33.80090 -132.06851 39358 ft 490 kts 54°
2026-04-14 07:44 33.82707 -131.99309 39355 ft 485 kts 54°
2026-04-14 07:45 33.85278 -131.91878 39357 ft 479 kts 54°
2026-04-14 07:45 33.87822 -131.84532 39358 ft 474 kts 54°
2026-04-14 07:46 33.90353 -131.77229 39355 ft 468 kts 53°
2026-04-14 07:46 33.92853 -131.70007 39354 ft 463 kts 53°
2026-04-14 07:47 33.95309 -131.62892 39350 ft 459 kts 53°
2026-04-14 07:47 33.97759 -131.55785 39356 ft 459 kts 53°
2026-04-14 07:48 34.00225 -131.48639 39353 ft 461 kts 53°
2026-04-14 07:48 34.02689 -131.41475 39345 ft 462 kts 53°
2026-04-14 07:49 34.05155 -131.34279 39340 ft 463 kts 53°
2026-04-14 07:49 34.07598 -131.27110 39341 ft 463 kts 53°
2026-04-14 07:50 34.10050 -131.19890 39337 ft 463 kts 54°
2026-04-14 07:50 34.12491 -131.12700 39341 ft 465 kts 53°
2026-04-14 07:51 34.14972 -131.05391 39342 ft 469 kts 53°
2026-04-14 07:51 34.17464 -130.98029 39339 ft 470 kts 53°
2026-04-14 07:52 34.19934 -130.90703 39340 ft 474 kts 54°
2026-04-14 07:52 34.22446 -130.83231 39335 ft 475 kts 54°
2026-04-14 07:53 34.24897 -130.75861 39340 ft 468 kts 54°
2026-04-14 07:53 34.27342 -130.68539 39340 ft 469 kts 54°
2026-04-14 07:54 34.29799 -130.61204 39339 ft 471 kts 54°
2026-04-14 07:54 34.32260 -130.53834 39341 ft 472 kts 54°
2026-04-14 07:55 34.34706 -130.46472 39340 ft 471 kts 54°
2026-04-14 07:55 34.37139 -130.39134 39345 ft 468 kts 54°
2026-04-14 07:56 34.39560 -130.31816 39350 ft 469 kts 55°
2026-04-14 07:56 34.41994 -130.24451 39342 ft 470 kts 55°
2026-04-14 07:57 34.44408 -130.17099 39345 ft 466 kts 55°
2026-04-14 07:57 34.46812 -130.09779 39342 ft 467 kts 55°
2026-04-14 07:58 34.49203 -130.02486 39341 ft 468 kts 55°
2026-04-14 07:58 34.51593 -129.95171 39335 ft 463 kts 56°
2026-04-14 07:59 34.53948 -129.87921 39337 ft 463 kts 56°
2026-04-14 07:59 34.56339 -129.80600 39334 ft 467 kts 56°
2026-04-14 08:00 34.58738 -129.73231 39327 ft 467 kts 56°
2026-04-14 08:00 34.61090 -129.65929 39328 ft 463 kts 56°
2026-04-14 08:01 34.63446 -129.58646 39326 ft 466 kts 56°
2026-04-14 08:01 34.65818 -129.51298 39322 ft 465 kts 56°
2026-04-14 08:02 34.68184 -129.43933 39319 ft 466 kts 56°
2026-04-14 08:02 34.70528 -129.36610 39318 ft 463 kts 56°
2026-04-14 08:03 34.72872 -129.29277 39318 ft 465 kts 57°
2026-04-14 08:03 34.75236 -129.21890 39318 ft 469 kts 57°
2026-04-14 08:04 34.77589 -129.14478 39319 ft 465 kts 57°
2026-04-14 08:04 34.79901 -129.07165 39317 ft 461 kts 57°
2026-04-14 08:05 34.82216 -128.99869 39319 ft 464 kts 57°
2026-04-14 08:05 34.84536 -128.92543 39317 ft 463 kts 58°
2026-04-14 08:06 34.86846 -128.85213 39317 ft 464 kts 57°
2026-04-14 08:06 34.89158 -128.77858 39317 ft 461 kts 58°
2026-04-14 08:07 34.91443 -128.70554 39316 ft 462 kts 58°
2026-04-14 08:07 34.93740 -128.63216 39320 ft 459 kts 58°
2026-04-14 08:08 34.96011 -128.55942 39318 ft 461 kts 58°
2026-04-14 08:08 34.98284 -128.48637 39318 ft 458 kts 58°
2026-04-14 08:09 35.00550 -128.41342 39314 ft 457 kts 58°
2026-04-14 08:09 35.02804 -128.34070 39317 ft 458 kts 59°
2026-04-14 08:10 35.05074 -128.26729 39316 ft 458 kts 59°
2026-04-14 08:10 35.07319 -128.19435 39316 ft 458 kts 60°
2026-04-14 08:11 35.09571 -128.12094 39305 ft 457 kts 60°
2026-04-14 08:11 35.11819 -128.04767 39299 ft 457 kts 60°
2026-04-14 08:12 35.14039 -127.97498 39296 ft 455 kts 60°
2026-04-14 08:12 35.16264 -127.90217 39295 ft 457 kts 60°
2026-04-14 08:13 35.18491 -127.82906 39297 ft 455 kts 60°
2026-04-14 08:13 35.20694 -127.75645 39299 ft 454 kts 60°
2026-04-14 08:14 35.22910 -127.68340 39294 ft 454 kts 61°
2026-04-14 08:14 35.25100 -127.61087 39297 ft 454 kts 61°
2026-04-14 08:15 35.27300 -127.53788 39296 ft 455 kts 61°
2026-04-14 08:15 35.29486 -127.46518 39294 ft 455 kts 61°
2026-04-14 08:16 35.31676 -127.39223 39296 ft 457 kts 61°
2026-04-14 08:16 35.33860 -127.31908 39294 ft 455 kts 62°
2026-04-14 08:17 35.36050 -127.24564 39298 ft 457 kts 62°
2026-04-14 08:17 35.38224 -127.17248 39303 ft 456 kts 63°
2026-04-14 08:18 35.40399 -127.09914 39298 ft 455 kts 63°
2026-04-14 08:18 35.42564 -127.02600 39315 ft 454 kts 63°
2026-04-14 08:19 35.44711 -126.95327 39276 ft 454 kts 63°
2026-04-14 08:19 35.46858 -126.88033 39298 ft 454 kts 63°
2026-04-14 08:20 35.49017 -126.80685 39289 ft 456 kts 63°
2026-04-14 08:20 35.51097 -126.73583 39291 ft 455 kts 63°
2026-04-14 08:21 35.53245 -126.66235 39282 ft 456 kts 63°
2026-04-14 08:21 35.55382 -126.58902 39289 ft 455 kts 63°
2026-04-14 08:22 35.57502 -126.51607 39276 ft 455 kts 64°
2026-04-14 08:22 35.59627 -126.44273 39276 ft 454 kts 63°
2026-04-14 08:23 35.61746 -126.36955 39272 ft 455 kts 64°
2026-04-14 08:23 35.63866 -126.29608 39268 ft 456 kts 64°
2026-04-14 08:24 35.65987 -126.22234 39271 ft 456 kts 65°
2026-04-14 08:24 35.68154 -126.14887 39262 ft 452 kts 59°
2026-04-14 08:25 35.71305 -126.08305 39258 ft 445 kts 50°
2026-04-14 08:25 35.74707 -126.01920 39259 ft 446 kts 52°
2026-04-14 08:26 35.77745 -125.95207 39256 ft 450 kts 57°
2026-04-14 08:26 35.80409 -125.88238 39252 ft 451 kts 60°
2026-04-14 08:27 35.82915 -125.81107 39257 ft 451 kts 61°
2026-04-14 08:27 35.85361 -125.73947 39254 ft 452 kts 62°
2026-04-14 08:28 35.87780 -125.66824 39261 ft 451 kts 62°
2026-04-14 08:28 35.90202 -125.59677 39253 ft 451 kts 62°
2026-04-14 08:29 35.92632 -125.52496 39256 ft 452 kts 62°
2026-04-14 08:29 35.95048 -125.45344 39253 ft 451 kts 62°
2026-04-14 08:30 35.97457 -125.38191 39252 ft 450 kts 62°
2026-04-14 08:30 35.99863 -125.31033 39259 ft 451 kts 62°
2026-04-14 08:31 36.02274 -125.23845 39265 ft 451 kts 62°
2026-04-14 08:31 36.05837 -125.13186 39259 ft 448 kts 62°
2026-04-14 08:32 36.08218 -125.06046 39252 ft 449 kts 63°
2026-04-14 08:32 36.10607 -124.98868 39250 ft 449 kts 62°
2026-04-14 08:33 36.12986 -124.91706 39253 ft 450 kts 63°
2026-04-14 08:33 36.15363 -124.84522 39246 ft 448 kts 62°
2026-04-14 08:34 36.17867 -124.77446 39241 ft 445 kts 57°
2026-04-14 08:34 36.21139 -124.71045 39244 ft 437 kts 48°
2026-04-14 08:35 36.24897 -124.65092 39244 ft 436 kts 45°
2026-04-14 08:35 36.28712 -124.59257 39242 ft 434 kts 45°
2026-04-14 08:36 36.32488 -124.53413 39233 ft 433 kts 45°
2026-04-14 08:36 36.36262 -124.47500 39229 ft 433 kts 46°
2026-04-14 08:37 36.40011 -124.41582 39234 ft 433 kts 46°
2026-04-14 08:37 36.43689 -124.35744 38857 ft 422 kts 45°
2026-04-14 08:38 36.45497 -124.32865 38410 ft 418 kts 46°
2026-04-14 08:38 36.47288 -124.30016 37910 ft 415 kts 46°
2026-04-14 08:38 36.49085 -124.27158 37363 ft 413 kts 46°
2026-04-14 08:38 36.50839 -124.24366 36832 ft 411 kts 46°
2026-04-14 08:39 36.52609 -124.21547 36262 ft 409 kts 46°
2026-04-14 08:39 36.54366 -124.18748 35645 ft 409 kts 46°
2026-04-14 08:39 36.56119 -124.15954 34995 ft 408 kts 46°
2026-04-14 08:39 36.57892 -124.13126 34294 ft 409 kts 46°
2026-04-14 08:40 36.59628 -124.10352 33775 ft 406 kts 46°
2026-04-14 08:40 36.61377 -124.07552 33237 ft 403 kts 46°
2026-04-14 08:40 36.63087 -124.04813 32695 ft 401 kts 47°
2026-04-14 08:40 36.64803 -124.02062 32155 ft 398 kts 47°
2026-04-14 08:41 36.66508 -123.99327 31608 ft 396 kts 47°
2026-04-14 08:41 36.68193 -123.96621 31061 ft 393 kts 47°
2026-04-14 08:41 36.69848 -123.93962 30526 ft 390 kts 47°
2026-04-14 08:41 36.71509 -123.91289 29981 ft 387 kts 47°
2026-04-14 08:42 36.73162 -123.88628 29440 ft 384 kts 47°
2026-04-14 08:42 36.74796 -123.85997 28896 ft 381 kts 47°
2026-04-14 08:42 36.76403 -123.83408 28374 ft 378 kts 47°
2026-04-14 08:42 36.78022 -123.80798 27833 ft 375 kts 47°
2026-04-14 08:43 36.79594 -123.78259 27452 ft 373 kts 47°
2026-04-14 08:43 36.81217 -123.75644 27181 ft 386 kts 47°
2026-04-14 08:43 36.82903 -123.72935 26772 ft 395 kts 47°
2026-04-14 08:43 36.84564 -123.70255 26226 ft 392 kts 47°
2026-04-14 08:44 36.86233 -123.67550 25642 ft 389 kts 48°
2026-04-14 08:44 36.87873 -123.64887 25049 ft 385 kts 48°
2026-04-14 08:44 36.89523 -123.62206 24461 ft 382 kts 48°
2026-04-14 08:44 36.91127 -123.59598 23882 ft 379 kts 48°
2026-04-14 08:45 36.92724 -123.57002 23299 ft 376 kts 48°
2026-04-14 08:45 36.94329 -123.54390 22704 ft 373 kts 48°
2026-04-14 08:45 36.95889 -123.51849 22145 ft 370 kts 48°
2026-04-14 08:45 36.97464 -123.49282 21569 ft 367 kts 48°
2026-04-14 08:46 36.99007 -123.46764 21181 ft 359 kts 48°
2026-04-14 08:46 37.00496 -123.44327 20957 ft 347 kts 48°
2026-04-14 08:46 37.01944 -123.41952 20696 ft 333 kts 48°
2026-04-14 08:46 37.03322 -123.39693 20240 ft 326 kts 47°
2026-04-14 08:47 37.04696 -123.37449 19620 ft 324 kts 48°
2026-04-14 08:47 37.06071 -123.35204 19000 ft 321 kts 48°
2026-04-14 08:47 37.07425 -123.32992 18351 ft 319 kts 49°
2026-04-14 08:47 37.08747 -123.30827 17691 ft 317 kts 49°
2026-04-14 08:48 37.10041 -123.28706 17216 ft 310 kts 49°
2026-04-14 08:48 37.11288 -123.26659 16717 ft 306 kts 49°
2026-04-14 08:48 37.12589 -123.24522 16199 ft 302 kts 49°
2026-04-14 08:48 37.13780 -123.22565 15796 ft 295 kts 49°
2026-04-14 08:49 37.15007 -123.20546 15394 ft 289 kts 49°
2026-04-14 08:49 37.16075 -123.18794 15058 ft 298 kts 49°
2026-04-14 08:49 37.17376 -123.16679 14631 ft 308 kts 49°
2026-04-14 08:49 37.18632 -123.14477 14182 ft 308 kts 54°
2026-04-14 08:50 37.19630 -123.12099 13758 ft 310 kts 63°
2026-04-14 08:50 37.20367 -123.09570 13356 ft 309 kts 68°
2026-04-14 08:50 37.20982 -123.06986 12934 ft 308 kts 70°
2026-04-14 08:50 37.21559 -123.04398 12518 ft 307 kts 70°
2026-04-14 08:51 37.22134 -123.01833 12104 ft 305 kts 70°
2026-04-14 08:51 37.22721 -122.99284 11694 ft 303 kts 70°
2026-04-14 08:51 37.23313 -122.96752 11278 ft 302 kts 70°
2026-04-14 08:51 37.23910 -122.94218 10873 ft 302 kts 70°
2026-04-14 08:52 37.24509 -122.91680 10457 ft 301 kts 70°
2026-04-14 08:52 37.25098 -122.89176 10166 ft 295 kts 70°
2026-04-14 08:52 37.25668 -122.86745 10023 ft 284 kts 70°
2026-04-14 08:52 37.26219 -122.84388 9990 ft 275 kts 70°
2026-04-14 08:53 37.26766 -122.82056 9994 ft 277 kts 70°
2026-04-14 08:53 37.27316 -122.79717 9995 ft 278 kts 70°
2026-04-14 08:53 37.27860 -122.77393 9991 ft 278 kts 70°
2026-04-14 08:53 37.28404 -122.75063 9994 ft 277 kts 70°
2026-04-14 08:54 37.28955 -122.72704 9992 ft 278 kts 71°
2026-04-14 08:54 37.29501 -122.70363 9991 ft 278 kts 70°
2026-04-14 08:54 37.30041 -122.68044 9992 ft 278 kts 71°
2026-04-14 08:54 37.30579 -122.65728 9989 ft 277 kts 71°
2026-04-14 08:55 37.31123 -122.63386 9991 ft 277 kts 70°
2026-04-14 08:55 37.31668 -122.61041 9992 ft 277 kts 70°
2026-04-14 08:55 37.32207 -122.58720 9990 ft 277 kts 70°
2026-04-14 08:55 37.32745 -122.56396 9975 ft 276 kts 70°
2026-04-14 08:56 37.33277 -122.54112 9970 ft 276 kts 70°
2026-04-14 08:56 37.33829 -122.51754 9984 ft 277 kts 70°
2026-04-14 08:56 37.34377 -122.49410 10012 ft 278 kts 70°
2026-04-14 08:56 37.34915 -122.47085 9980 ft 277 kts 70°
2026-04-14 08:57 37.35453 -122.44746 9997 ft 277 kts 71°
2026-04-14 08:57 37.35986 -122.42424 9876 ft 272 kts 71°
2026-04-14 08:57 37.36507 -122.40147 9526 ft 271 kts 70°
2026-04-14 08:57 37.37033 -122.37852 9190 ft 269 kts 70°
2026-04-14 08:58 37.37553 -122.35581 8859 ft 268 kts 71°
2026-04-14 08:58 37.38066 -122.33337 8530 ft 267 kts 72°
2026-04-14 08:58 37.38503 -122.31293 8232 ft 266 kts 73°
2026-04-14 08:58 37.38969 -122.29036 7977 ft 263 kts 73°
2026-04-14 08:59 37.39390 -122.26999 7934 ft 256 kts 73°
2026-04-14 08:59 37.39813 -122.24932 7855 ft 246 kts 73°
2026-04-14 08:59 37.40190 -122.23088 7777 ft 237 kts 73°
2026-04-14 08:59 37.40593 -122.21122 7669 ft 229 kts 73°
2026-04-14 09:00 37.40985 -122.19202 7444 ft 227 kts 73°
2026-04-14 09:00 37.41386 -122.17269 7192 ft 226 kts 73°
2026-04-14 09:00 37.41785 -122.15363 6953 ft 224 kts 72°
2026-04-14 09:00 37.42295 -122.13530 6720 ft 221 kts 63°
2026-04-14 09:01 37.43100 -122.11875 6474 ft 217 kts 50°
2026-04-14 09:01 37.44039 -122.10392 6223 ft 216 kts 49°
2026-04-14 09:01 37.44987 -122.08935 5971 ft 216 kts 49°
2026-04-14 09:01 37.45942 -122.07459 5709 ft 216 kts 49°
2026-04-14 09:02 37.46899 -122.05986 5454 ft 215 kts 49°
2026-04-14 09:02 37.47852 -122.04519 5197 ft 215 kts 49°
2026-04-14 09:02 37.48788 -122.03078 5064 ft 207 kts 49°
2026-04-14 09:02 37.49800 -122.01873 4911 ft 198 kts 26°
2026-04-14 09:03 37.51116 -122.01536 4650 ft 194 kts 351°
2026-04-14 09:03 37.52404 -122.02037 4400 ft 193 kts 338°
2026-04-14 09:03 37.53671 -122.02651 4127 ft 194 kts 338°
2026-04-14 09:03 37.54935 -122.03249 3894 ft 193 kts 339°
2026-04-14 09:04 37.56171 -122.03828 3781 ft 184 kts 339°
2026-04-14 09:04 37.57339 -122.04369 3668 ft 175 kts 339°
2026-04-14 09:04 37.58457 -122.04913 3550 ft 171 kts 334°
2026-04-14 09:04 37.59462 -122.05746 3314 ft 173 kts 317°
2026-04-14 09:05 37.60292 -122.06831 3070 ft 172 kts 311°
2026-04-14 09:05 37.61082 -122.07964 2825 ft 172 kts 310°
2026-04-14 09:05 37.61862 -122.09111 2585 ft 171 kts 310°
2026-04-14 09:05 37.62645 -122.10272 2346 ft 171 kts 309°
2026-04-14 09:06 37.63406 -122.11403 2107 ft 171 kts 309°
2026-04-14 09:06 37.64176 -122.12547 1869 ft 168 kts 309°
2026-04-14 09:06 37.64921 -122.13654 1650 ft 161 kts 309°
2026-04-14 09:06 37.65635 -122.14716 1428 ft 149 kts 308°
2026-04-14 09:07 37.66298 -122.15701 1210 ft 142 kts 309°
2026-04-14 09:07 37.66931 -122.16647 1027 ft 142 kts 308°
2026-04-14 09:07 37.67570 -122.17608 839 ft 140 kts 308°
2026-04-14 09:07 37.68207 -122.18549 646 ft 140 kts 309°
2026-04-14 09:08 37.68852 -122.19498 447 ft 139 kts 309°
2026-04-14 09:08 37.69479 -122.20422 254 ft 138 kts 308°
2026-04-14 09:08 37.70110 -122.21368 70 ft 139 kts 307°
2026-04-14 09:08 37.70700 -122.22256 13 ft 107 kts 310°
2026-04-14 09:09 37.71047 -122.22771 13 ft 49 kts 310°
2026-04-14 09:09 37.71219 -122.23003 13 ft 32 kts 320°
2026-04-14 09:09 37.71382 -122.23127 13 ft 21 kts 340°
2026-04-14 09:09 37.71480 -122.23146 12 ft 10 kts 23°
2026-04-14 09:10 37.71497 -122.23086 12 ft 7 kts 110°
2026-04-14 09:10 37.71466 -122.23028 12 ft 7 kts 129°
2026-04-14 09:10 37.71431 -122.22974 12 ft 7 kts 130°
2026-04-14 09:10 37.71397 -122.22922 12 ft 7 kts 130°
2026-04-14 09:11 37.71361 -122.22869 12 ft 7 kts 130°
2026-04-14 09:11 37.71327 -122.22817 12 ft 7 kts 130°
2026-04-14 09:11 37.71294 -122.22767 13 ft 7 kts 130°
2026-04-14 09:11 37.71256 -122.22710 13 ft 8 kts 131°
2026-04-14 09:12 37.71214 -122.22649 13 ft 9 kts 131°
2026-04-14 09:12 37.71194 -122.22570 13 ft 11 kts 72°
2026-04-14 09:12 37.71238 -122.22489 13 ft 11 kts 48°
2026-04-14 09:12 37.71292 -122.22419 13 ft 11 kts 48°
2026-04-14 09:13 37.71339 -122.22340 13 ft 11 kts 70°
2026-04-14 09:13 37.71324 -122.22231 13 ft 14 kts 128°
2026-04-14 09:13 37.71252 -122.22134 13 ft 15 kts 134°
2026-04-14 09:13 37.71183 -122.22037 13 ft 14 kts 129°
2026-04-14 09:14 37.71119 -122.21933 13 ft 14 kts 127°
2026-04-14 09:14 37.71050 -122.21835 13 ft 15 kts 141°
2026-04-14 09:14 37.70981 -122.21757 13 ft 11 kts 127°
2026-04-14 09:14 37.70934 -122.21678 13 ft 9 kts 126°
2026-04-14 09:15 37.70916 -122.21609 13 ft 6 kts 91°
2026-04-14 09:15 37.70924 -122.21561 13 ft 4 kts 67°
2026-04-14 09:15 37.70936 -122.21538 13 ft 2 kts 46°
2026-04-14 09:15 37.70954 -122.21519 13 ft 5 kts 40°
2026-04-14 09:16 37.70992 -122.21481 13 ft 8 kts 36°
2026-04-14 09:16 37.71045 -122.21429 13 ft 10 kts 40°
2026-04-14 09:16 37.71083 -122.21388 13 ft 2 kts 28°
2026-04-14 09:16 37.71092 -122.21385 13 ft 0 kts
2026-04-14 09:17 37.71108 -122.21387 13 ft 4 kts 352°
2026-04-14 09:17 37.71143 -122.21388 13 ft 5 kts
2026-04-14 09:17 37.71172 -122.21384 13 ft 2 kts
2026-04-14 09:17 37.71174 -122.21383 13 ft 0 kts